Weather History for Washington, IA

Change the Weather History Date:

Friday, October 5, 2012

  Actual Average Record
Temperature  
Mean Temperature 40 °F -  
Max Temperature 46 °F 68 °F 89 °F (1997)
Min Temperature 33 °F 45 °F 26 °F (2004)
Degree Days  
Heating Degree Days 24    
Moisture  
Dew Point 28 °F    
Average Humidity 60    
Maximum Humidity 76    
Minimum Humidity 46    
Precipitation  
Precipitation 0.00 in - - ()
Sea Level Pressure  
Sea Level Pressure 30.22 in    
Wind  
Wind Speed 8 mph (WNW)    
Max Wind Speed 16 mph    
Max Gust Speed 22 mph    
Visibility 10 miles    
Events      
Averages and records for this station are not official NWS values.
T = Trace of Precipitation, MM = Missing Value Source: NWS Daily Summary

Daily Weather History Graph

Daily Weather History Graph

Search for Another Location

Airport:

Trip Planner

Search our weather history database for the weather conditions in past years. The results will help you decide how hot, cold, wet, or windy it might be!

Date:

Astronomy

Oct. 05, 2012 Rise Set
Actual Time 7:08 AM CDT 6:41 PM CDT
Civil Twilight 6:40 AM CDT 7:08 PM CDT
Nautical Twilight 6:08 AM CDT 7:40 PM CDT
Astronomical Twilight 5:36 AM CDT 8:12 PM CDT
Moon 10:02 PM CDT (10/5) 12:18 PM CDT (10/5)
Length of Visible Light 12h 28m
Length of Day
11h 32m
Waning Gibbous, 74% of the Moon is Illuminated
Oct 5
Waning Gibbous
Oct 8
Last Quarter
Oct 15
New
Oct 21
First Quarter
Oct 29
Full

Hourly Weather History & Observations

Time (CDT) Temp. Windchill Dew Point Humidity Pressure Visibility Wind Dir Wind Speed Gust Speed Precip Events Conditions
12:15 AM 44.6 °F 40.7 °F 35.6 °F 71% 30.24 in 10.0 mi WNW 6.9 mph - N/A   Clear
12:35 AM 44.6 °F 40.7 °F 33.8 °F 66% 30.24 in 10.0 mi NNW 6.9 mph - N/A   Clear
12:55 AM 44.6 °F 39.2 °F 33.8 °F 66% 30.24 in 10.0 mi NNW 10.4 mph - N/A   Clear
1:15 AM 42.8 °F 39.3 °F 33.8 °F 70% 30.23 in 10.0 mi NNW 5.8 mph - N/A   Clear
1:35 AM 42.8 °F 40.1 °F 33.8 °F 70% 30.21 in 10.0 mi North 4.6 mph - N/A   Clear
1:55 AM 42.8 °F 38.6 °F 33.8 °F 70% 30.25 in 10.0 mi NW 6.9 mph - N/A   Clear
2:15 AM 42.8 °F 39.3 °F 33.8 °F 70% 30.26 in 10.0 mi NW 5.8 mph - N/A   Clear
2:35 AM 42.8 °F 38.6 °F 33.8 °F 70% 30.24 in 10.0 mi NNW 6.9 mph - N/A   Clear
2:55 AM 42.8 °F 38.0 °F 33.8 °F 70% 30.23 in 10.0 mi NNW 8.1 mph - N/A   Clear
3:15 AM 42.8 °F 39.3 °F 33.8 °F 70% 30.23 in 10.0 mi NW 5.8 mph - N/A   Clear
3:35 AM 41.0 °F 35.8 °F 33.8 °F 76% 30.23 in 10.0 mi NNW 8.1 mph - N/A   Clear
3:55 AM 41.0 °F 35.8 °F 33.8 °F 76% 30.23 in 10.0 mi NNW 8.1 mph - N/A   Clear
4:15 AM 41.0 °F 36.4 °F 32.0 °F 70% 30.23 in 10.0 mi NNW 6.9 mph - N/A   Clear
4:35 AM 42.8 °F 38.0 °F 32.0 °F 66% 30.23 in 10.0 mi NNW 8.1 mph - N/A   Clear
4:55 AM 41.0 °F 36.4 °F 30.2 °F 65% 30.23 in 10.0 mi NW 6.9 mph - N/A   Clear
5:15 AM 39.2 °F 35.9 °F 30.2 °F 70% 30.24 in 10.0 mi WNW 4.6 mph - N/A   Clear
5:35 AM 39.2 °F 35.0 °F 30.2 °F 70% 30.25 in 10.0 mi WNW 5.8 mph - N/A   Clear
5:55 AM 37.4 °F 33.8 °F 30.2 °F 75% 30.25 in 10.0 mi WNW 4.6 mph - N/A   Clear
6:15 AM 37.4 °F 32.8 °F 30.2 °F 75% 30.25 in 10.0 mi WNW 5.8 mph - N/A   Clear
6:35 AM 37.4 °F 32.8 °F 30.2 °F 75% 30.25 in 10.0 mi WNW 5.8 mph - N/A   Clear
6:55 AM 37.4 °F 31.4 °F 30.2 °F 75% 30.23 in 10.0 mi NW 8.1 mph - N/A   Scattered Clouds
7:15 AM 37.4 °F 31.4 °F 30.2 °F 75% 30.24 in 10.0 mi NW 8.1 mph - N/A   Scattered Clouds
7:35 AM 39.2 °F 33.6 °F 30.2 °F 70% 30.23 in 10.0 mi NW 8.1 mph - N/A   Scattered Clouds
7:55 AM 39.2 °F 35.9 °F 30.2 °F 70% 30.23 in 10.0 mi WNW 4.6 mph - N/A   Mostly Cloudy
8:15 AM 39.2 °F 35.0 °F 30.2 °F 70% 30.23 in 10.0 mi WNW 5.8 mph - N/A   Overcast
8:35 AM 41.0 °F 36.4 °F 30.2 °F 65% 30.24 in 10.0 mi WNW 6.9 mph - N/A   Mostly Cloudy
8:55 AM 41.0 °F 36.4 °F 30.2 °F 65% 30.25 in 10.0 mi WNW 6.9 mph - N/A   Scattered Clouds
9:15 AM 42.8 °F 36.6 °F 30.2 °F 61% 30.25 in 10.0 mi WNW 11.5 mph - N/A   Mostly Cloudy
9:35 AM 42.8 °F 38.0 °F 30.2 °F 61% 30.25 in 10.0 mi NW 8.1 mph - N/A   Scattered Clouds
9:55 AM 42.8 °F 38.0 °F 30.2 °F 61% 30.25 in 10.0 mi WNW 8.1 mph - N/A   Mostly Cloudy
10:15 AM 44.6 °F 38.8 °F 30.2 °F 57% 30.25 in 10.0 mi NW 11.5 mph - N/A   Overcast
10:35 AM 44.6 °F 39.2 °F 28.4 °F 53% 30.25 in 10.0 mi NW 10.4 mph - N/A   Overcast
10:55 AM 44.6 °F 38.1 °F 28.4 °F 53% 30.24 in 10.0 mi NW 13.8 mph - N/A   Overcast
11:35 AM 44.6 °F 38.8 °F 28.4 °F 53% 30.24 in 10.0 mi NW 11.5 mph - N/A   Scattered Clouds
11:55 AM 44.6 °F 38.4 °F 26.6 °F 49% 30.22 in 10.0 mi NNW 12.7 mph 21.9 mph N/A   Scattered Clouds
12:15 PM 46.4 °F 40.4 °F 28.4 °F 50% 30.21 in 10.0 mi NW 13.8 mph 18.4 mph N/A   Scattered Clouds
12:35 PM 44.6 °F 37.8 °F 26.6 °F 49% 30.21 in 10.0 mi NNW 15.0 mph - N/A   Scattered Clouds
12:55 PM 44.6 °F 37.4 °F 26.6 °F 49% 30.21 in 10.0 mi NW 16.1 mph 21.9 mph N/A   Mostly Cloudy
1:35 PM 44.6 °F 38.8 °F 26.6 °F 49% 30.22 in 10.0 mi NW 11.5 mph 20.7 mph N/A   Mostly Cloudy
1:55 PM 44.6 °F 37.4 °F 30.2 °F 57% 30.23 in 10.0 mi WNW 16.1 mph 19.6 mph N/A   Scattered Clouds
2:15 PM 44.6 °F 39.7 °F 26.6 °F 49% 30.23 in 10.0 mi WNW 9.2 mph 18.4 mph N/A   Scattered Clouds
2:35 PM 44.6 °F 38.1 °F 28.4 °F 53% 30.22 in 10.0 mi West 13.8 mph - N/A   Scattered Clouds
2:55 PM 44.6 °F 38.8 °F 24.8 °F 46% 30.21 in 10.0 mi WNW 11.5 mph - N/A   Clear
3:15 PM 44.6 °F 38.4 °F 26.6 °F 49% 30.20 in 10.0 mi West 12.7 mph - N/A   Scattered Clouds
3:35 PM 44.6 °F 38.8 °F 24.8 °F 46% 30.21 in 10.0 mi West 11.5 mph - N/A   Mostly Cloudy
3:55 PM 44.6 °F 38.8 °F 26.6 °F 49% 30.20 in 10.0 mi WNW 11.5 mph - N/A   Mostly Cloudy
4:15 PM 44.6 °F 39.7 °F 26.6 °F 49% 30.20 in 10.0 mi West 9.2 mph - N/A   Scattered Clouds
4:35 PM 44.6 °F 38.8 °F 26.6 °F 49% 30.19 in 10.0 mi West 11.5 mph - N/A   Clear
4:55 PM 44.6 °F 40.2 °F 26.6 °F 49% 30.18 in 10.0 mi West 8.1 mph - N/A   Clear
5:15 PM 44.6 °F 38.8 °F 26.6 °F 49% 30.18 in 10.0 mi WNW 11.5 mph - N/A   Scattered Clouds
5:35 PM 44.6 °F 38.4 °F 26.6 °F 49% 30.17 in 10.0 mi WNW 12.7 mph - N/A   Clear
5:55 PM 44.6 °F 39.7 °F 26.6 °F 49% 30.18 in 10.0 mi West 9.2 mph - N/A   Scattered Clouds
6:15 PM 44.6 °F 40.2 °F 26.6 °F 49% 30.17 in 10.0 mi WNW 8.1 mph - N/A   Scattered Clouds
6:35 PM 44.6 °F 40.2 °F 24.8 °F 46% 30.17 in 10.0 mi WNW 8.1 mph - N/A   Clear
6:55 PM 42.8 °F 38.0 °F 23.0 °F 46% 30.18 in 10.0 mi WNW 8.1 mph - N/A   Clear
7:15 PM 41.0 °F 37.1 °F 23.0 °F 49% 30.18 in 10.0 mi WNW 5.8 mph - N/A   Clear
7:35 PM 39.2 °F 34.2 °F 23.0 °F 52% 30.19 in 10.0 mi West 6.9 mph - N/A   Clear
7:55 PM 37.4 °F 33.8 °F 23.0 °F 56% 30.19 in 10.0 mi West 4.6 mph - N/A   Clear
8:15 PM 37.4 °F 33.8 °F 23.0 °F 56% 30.19 in 10.0 mi West 4.6 mph - N/A   Clear
8:35 PM 35.6 °F 30.7 °F 23.0 °F 60% 30.19 in 10.0 mi West 5.8 mph - N/A   Clear
8:55 PM 35.6 °F 30.7 °F 23.0 °F 60% 30.19 in 10.0 mi West 5.8 mph - N/A   Clear
9:15 PM 35.6 °F 29.9 °F 24.8 °F 65% 30.19 in 10.0 mi West 6.9 mph - N/A   Clear
9:35 PM 35.6 °F 29.9 °F 24.8 °F 65% 30.19 in 10.0 mi West 6.9 mph - N/A   Clear
9:55 PM 37.4 °F 30.8 °F 24.8 °F 60% 30.20 in 10.0 mi West 9.2 mph - N/A   Clear
10:35 PM 37.4 °F 30.8 °F 24.8 °F 60% 30.19 in 10.0 mi West 9.2 mph - N/A   Clear
10:55 PM 37.4 °F 30.3 °F 23.0 °F 56% 30.19 in 10.0 mi West 10.4 mph - N/A   Clear
11:15 PM 35.6 °F 29.9 °F 23.0 °F 60% 30.20 in 10.0 mi WNW 6.9 mph - N/A   Clear
11:55 PM 33.8 °F 27.0 °F 21.2 °F 60% 30.20 in 10.0 mi WNW 8.1 mph - N/A   Clear